Location: Bli��� Lhota
(48.7570°N, 14.0120°E)
Time: 05:41:36
(UTC+00:00)

Cosmos 1689 Rocket - Pass Details

Date: 18 September 2020
Orbit: 362 x 378 km, 97.5° (Epoch: 29 October)

Event Time Altitude Azimuth Distance (km) Brightness Sun altitude
Rises 17:31:14 0° 6° (N) 2,281 6.0 -4.4°
Reaches altitude 10° 17:33:17 10° 359° (N) 1,420 5.1 -4.7°
Maximum altitude 17:36:08 39° 289° (WNW) 597 3.8 -5.2°
Drops below altitude 10° 17:38:56 10° 218° (SW) 1,402 5.3 -5.6°
Sets 17:40:57 0° 210° (SSW) 2,246 6.2 -6.0°
